TimeAST,TemperatureF,Dew PointF,Humidity,Sea Level PressureIn,VisibilityMPH,Wind Direction,Wind SpeedMPH,Gust SpeedMPH,PrecipitationIn,Events,Conditions,WindDirDegrees,DateUTC
12:00 AM,80.6,73.4,79,29.95,5.6,ESE,5.8,-,N/A,,Scattered Clouds,110,2012-11-19 04:00:00
1:00 AM,80.6,75.2,84,29.95,3.1,ESE,8.1,-,N/A,,Scattered Clouds,110,2012-11-19 05:00:00
2:00 AM,79,74,81,29.94,11,,2.3,,,Rain,Light Rain Showers,,2012-11-19 06:00:00
2:00 AM,78.8,73.4,83,29.92,6.2,ESE,5.8,-,N/A,,Mostly Cloudy,110,2012-11-19 06:00:00
3:00 AM,78.8,73.4,83,29.92,6.2,East,4.6,-,N/A,,Scattered Clouds,100,2012-11-19 07:00:00
4:00 AM,77.0,73.4,89,29.92,6.2,SE,11.5,-,N/A,,Scattered Clouds,130,2012-11-19 08:00:00
5:00 AM,77,74,89,29.93,7,ESE,9.2,,,Rain,Light Rain,110,2012-11-19 09:00:00
5:00 AM,77.0,73.4,89,29.92,6.2,ESE,8.1,-,N/A,Rain,Light Rain,110,2012-11-19 09:00:00
6:00 AM,80.6,75.2,84,29.95,6.2,ESE,5.8,-,N/A,,Scattered Clouds,110,2012-11-19 10:00:00
7:00 AM,78.8,75.2,89,29.95,6.2,East,8.1,-,N/A,,Mostly Cloudy,90,2012-11-19 11:00:00
8:00 AM,79,74,79,29.97,19,ESE,8.1,,,Rain,Light Rain Showers,110,2012-11-19 12:00:00
8:00 AM,78.8,73.4,83,29.95,-9999.0,ESE,8.1,-,N/A,,Mostly Cloudy,110,2012-11-19 12:00:00
9:00 AM,78.8,75.2,89,29.98,6.2,ESE,6.9,-,N/A,Rain,Light Rain,120,2012-11-19 13:00:00
10:47 AM,78.8,75.2,89,29.95,3.7,SSE,8.1,-,N/A,Rain,Rain,160,2012-11-19 14:47:00
11:00 AM,79,75,85,29.96,9,,3.5,,,Rain,Light Rain,,2012-11-19 15:00:00
11:00 AM,78.8,75.2,89,29.95,6.2,Variable,3.5,-,N/A,,Mostly Cloudy,0,2012-11-19 15:00:00
12:00 PM,82.4,75.2,79,29.92,6.2,SE,6.9,-,N/A,,Scattered Clouds,140,2012-11-19 16:00:00
1:00 PM,82.4,75.2,79,29.89,6.2,SE,6.9,-,N/A,,Mostly Cloudy,130,2012-11-19 17:00:00
2:00 PM,85,74,64,29.89,28,SSE,8.1,,,,Partly Cloudy,150,2012-11-19 18:00:00
2:00 PM,84.2,75.2,74,29.89,6.2,SE,8.1,-,N/A,,Scattered Clouds,130,2012-11-19 18:00:00
3:00 PM,84.2,73.4,70,29.86,6.2,ESE,6.9,-,N/A,,Partly Cloudy,120,2012-11-19 19:00:00
4:00 PM,84.2,73.4,70,29.86,6.2,ESE,6.9,-,N/A,,Partly Cloudy,120,2012-11-19 20:00:00
5:00 PM,82,73,67,29.88,28,ESE,8.1,,,,Scattered Clouds,120,2012-11-19 21:00:00
5:00 PM,82.4,73.4,74,29.86,6.2,ESE,8.1,-,N/A,,Partly Cloudy,120,2012-11-19 21:00:00
6:00 PM,82.4,73.4,74,29.89,6.2,ESE,6.9,-,N/A,,Partly Cloudy,120,2012-11-19 22:00:00
7:00 PM,80.6,73.4,79,29.89,6.2,ESE,8.1,-,N/A,,Partly Cloudy,110,2012-11-19 23:00:00
8:00 PM,81,72,69,29.91,28,ESE,6.9,,,,Partly Cloudy,120,2012-11-20 00:00:00
8:00 PM,80.6,73.4,79,29.89,6.2,ESE,6.9,-,N/A,,Scattered Clouds,120,2012-11-20 00:00:00
9:00 PM,80.6,71.6,74,29.89,6.2,ESE,8.1,-,N/A,,Partly Cloudy,120,2012-11-20 01:00:00
10:00 PM,80.6,71.6,74,29.92,6.2,ESE,10.4,-,N/A,,Scattered Clouds,110,2012-11-20 02:00:00
11:00 PM,81,70,62,29.92,28,ESE,8.1,,,,Scattered Clouds,120,2012-11-20 03:00:00
11:00 PM,80.6,69.8,70,29.92,6.2,ESE,8.1,-,N/A,,Partly Cloudy,120,2012-11-20 03:00:00